(480444) = 2015 KA142

Discovered at Kitt Peak on 2007-11-09 by Spacewatch.

Orbit

Orbit type: Main Belt

Note: WebGL enabled browser required.

epoch2024-03-31.0
epoch JD2460400.5
perihelion date2025-08-14.66003
perihelion JD2460902.16003
argument of perihelion (°)324.15478
ascending node (°)273.36082
inclination (°)1.72593
eccentricity0.0295309
perihelion distance (AU)2.8832900
Tisserand w.r.t. Jupiter3.3
ΔV w.r.t. Earth (km/sec)10.5
semimajor axis (AU)2.9710271
mean anomaly (°)263.44975
mean daily motion (°/day)0.19246150
aphelion distance (AU)3.059
period (years)5.12
P-vector [x]-0.53680476
P-vector [y]-0.76690066
P-vector [z]-0.35171583
Q-vector [x]0.84317058
Q-vector [y]-0.50248327
Q-vector [z]-0.19124313
absolute magnitude16.69
phase slope0.15
uncertainty0
referenceMPEC 2024-C82
observations used309
oppositions13
arc length (days)5934
first opposition used2007
last opposition used2024
residual rms (arc-secs)0.81
perturbers coarse indicatorM-v
perturbers precise indicator003Ek
first observation date used2007-11-09.0
last observation date used2024-02-07.0
computer nameMPCLINUX
JD of orbit computation2457639.945668
perihelion JD uncertainty (days)5.9512E-04
argument of perihelion uncertainty (°)1.8970E-04
ascending node uncertainty (°)1.4912E-04
inclination uncertainty (°)5.2245E-06
eccentricity uncertainty 5.0863E-08
perihelion distance uncertainty (AU)1.4561E-07
Minimum Orbit Intersection Distances (in AU)
for orbit epoch: 2460200.5, reference: E2024-C82
Mercury2.41976
Venus2.1592
Earth1.8704
Mars1.2759
Jupiter1.92097
Saturn6.0068
Uranus15.5015
Neptune26.7945

Observations

314 total observations over interval: 2007 11 09.37648 – 2024 02 07.326336
These data are available for download (format description).

Date (UT) J2000 RA J2000 Dec Magn Location Ref
2007 11 09.37648 05 14 20.76 +24 02 39.1 20.9 V 691 – Steward Observatory, Kitt Peak-Spacewatch MPS 615216
2007 11 09.39412 05 14 20.09 +24 02 37.7 21.2 V 691 – Steward Observatory, Kitt Peak-Spacewatch MPS 615216
2007 11 09.41177 05 14 19.46 +24 02 37.1 20.9 V 691 – Steward Observatory, Kitt Peak-Spacewatch MPS 615216
2008 01 11.22053 04 26 20.11 +22 14 23.8 21.5 V G96 – Mt. Lemmon Survey MPS 615216
2008 01 11.23039 04 26 19.89 +22 14 23.4 20.8 V G96 – Mt. Lemmon Survey MPS 615216
2008 01 11.24031 04 26 19.60 +22 14 22.5 21.1 V G96 – Mt. Lemmon Survey MPS 615216
2008 01 11.25015 04 26 19.32 +22 14 21.4 20.9 V G96 – Mt. Lemmon Survey MPS 615216
2009 02 27.33928 10 41 38.50 +05 43 15.8 20.4 V G96 – Mt. Lemmon Survey MPS 615216
2009 02 27.34755 10 41 38.11 +05 43 18.1 20.5 V G96 – Mt. Lemmon Survey MPS 615216
2009 02 27.35168 10 41 37.89 +05 43 19.4 19.9 V G96 – Mt. Lemmon Survey MPS 615216
2009 05 14.19529 10 22 55.81 +08 00 49.3 22.4 V G96 – Mt. Lemmon Survey MPS 615216
2009 05 14.20351 10 22 55.99 +08 00 48.1 22.3 V G96 – Mt. Lemmon Survey MPS 615216
2009 05 14.21175 10 22 56.24 +08 00 47.9 20.8 V G96 – Mt. Lemmon Survey MPS 615216
2009 05 14.21998 10 22 56.53 +08 00 46.0 21.5 V G96 – Mt. Lemmon Survey MPS 615216
2011 08 23.50139 22 58 15.886 -04 03 00.84 21.4 g F51 – Pan-STARRS 1, Haleakala MPS 615216
2011 08 23.51346 22 58 15.340 -04 03 03.73 21.0 r F51 – Pan-STARRS 1, Haleakala MPS 615216
2011 08 23.52409 22 58 14.864 -04 03 06.36 21.0 r F51 – Pan-STARRS 1, Haleakala MPS 615216
2012 11 12.40244 04 21 02.16 +22 51 06.7 21.1 V G96 – Mt. Lemmon Survey MPS 615216
2012 11 12.40946 04 21 01.80 +22 51 05.5 21.1 V G96 – Mt. Lemmon Survey MPS 615216
2012 11 12.41651 04 21 01.44 +22 51 04.2 20.9 V G96 – Mt. Lemmon Survey MPS 615216
2012 11 12.42356 04 21 01.08 +22 51 04.0 21.1 V G96 – Mt. Lemmon Survey MPS 615216
2012 11 22.21202 04 12 33.01 +22 27 16.5 21.0 V 691 – Steward Observatory, Kitt Peak-Spacewatch MPS 615216
2012 11 22.22970 04 12 32.01 +22 27 13.7 21.2 V 691 – Steward Observatory, Kitt Peak-Spacewatch MPS 615216
2012 11 22.24740 04 12 31.01 +22 27 11.4 21.5 V 691 – Steward Observatory, Kitt Peak-Spacewatch MPS 615216
2012 12 09.31415 03 57 32.29 +21 38 16.7 20.7 V G96 – Mt. Lemmon Survey MPS 615216
2012 12 09.31757 03 57 32.07 +21 38 15.9 20.9 V G96 – Mt. Lemmon Survey MPS 615216
2012 12 09.32177 03 57 31.86 +21 38 14.8 21.4 V G96 – Mt. Lemmon Survey MPS 615216
2012 12 09.32523 03 57 31.75 +21 38 15.0 20.5 V G96 – Mt. Lemmon Survey MPS 615216
2012 12 10.26976 03 56 46.322 +21 35 30.57 21.2 w F51 – Pan-STARRS 1, Haleakala MPS 615216
2012 12 10.28523 03 56 45.573 +21 35 27.83 21.1 w F51 – Pan-STARRS 1, Haleakala MPS 615216
2012 12 10.31085 03 56 44.293 +21 35 23.56 21.2 w F51 – Pan-STARRS 1, Haleakala MPS 615216
2012 12 10.32638 03 56 43.525 +21 35 20.86 20.9 w F51 – Pan-STARRS 1, Haleakala MPS 615216
2014 01 09.45313 10 22 44.05 +08 17 28.0 21.0 V G96 – Mt. Lemmon Survey MPS 615216
2014 01 09.45810 10 22 44.01 +08 17 27.7 20.7 V G96 – Mt. Lemmon Survey MPS 615216
2014 01 09.46307 10 22 43.86 +08 17 28.5 21.2 V G96 – Mt. Lemmon Survey MPS 615216
2014 01 09.46803 10 22 43.78 +08 17 28.5 21.5 V G96 – Mt. Lemmon Survey MPS 615216
2014 01 29.28790 10 13 18.77 +08 55 30.8   691 – Steward Observatory, Kitt Peak-Spacewatch MPS 615216
2014 01 29.30560 10 13 18.05 +08 55 34.2   691 – Steward Observatory, Kitt Peak-Spacewatch MPS 615216
2014 01 29.32331 10 13 17.30 +08 55 38.0   691 – Steward Observatory, Kitt Peak-Spacewatch MPS 615216
2014 02 10.38877 10 04 18.996 +09 38 23.13 20.3 i F51 – Pan-STARRS 1, Haleakala MPS 615216
2014 02 10.40065 10 04 18.405 +09 38 25.97 20.4 i F51 – Pan-STARRS 1, Haleakala MPS 615216
2014 02 10.41251 10 04 17.822 +09 38 28.94 20.4 i F51 – Pan-STARRS 1, Haleakala MPS 615216
2014 02 10.42438 10 04 17.224 +09 38 31.76 20.6 i F51 – Pan-STARRS 1, Haleakala MPS 615216
2014 03 31.21126 09 33 43.59 +12 18 13.3 20.1 V G96 – Mt. Lemmon Survey MPS 615216
2014 03 31.22115 09 33 43.52 +12 18 13.7 20.9 V G96 – Mt. Lemmon Survey MPS 615216
2014 03 31.22902 09 33 43.40 +12 18 14.6 21.2 V G96 – Mt. Lemmon Survey MPS 615216
2014 03 31.23964 09 33 43.26 +12 18 15.9 20.9 V G96 – Mt. Lemmon Survey MPS 615216
2015 05 13.34562 15 52 49.26 -21 49 37.2 21.2 V G96 – Mt. Lemmon Survey MPS 608885
2015 05 13.35173 15 52 49.00 -21 49 35.5 20.6 V G96 – Mt. Lemmon Survey MPS 608885
2015 05 13.35781 15 52 48.62 -21 49 35.3   G96 – Mt. Lemmon Survey MPS 608885
2015 05 13.36390 15 52 48.31 -21 49 33.7 20.6 V G96 – Mt. Lemmon Survey MPS 608885
2015 05 20.23697 15 46 58.23 -21 28 54.8 20.6 V W84 – Cerro Tololo-DECam MPS 790993
2015 05 20.24024 15 46 58.05 -21 28 54.2   W84 – Cerro Tololo-DECam MPS 790993
2015 05 20.24348 15 46 57.88 -21 28 53.6   W84 – Cerro Tololo-DECam MPS 790993
2015 05 20.24671 15 46 57.71 -21 28 52.9   W84 – Cerro Tololo-DECam MPS 790993
2015 05 20.24995 15 46 57.54 -21 28 52.3   W84 – Cerro Tololo-DECam MPS 790993
2015 05 21.27839 15 46 04.68 -21 25 38.3 20.6 V W84 – Cerro Tololo-DECam MPS 790993
2015 05 21.28167 15 46 04.51 -21 25 37.7   W84 – Cerro Tololo-DECam MPS 790993
2015 05 21.28487 15 46 04.34 -21 25 37.1   W84 – Cerro Tololo-DECam MPS 790993
2015 05 21.28812 15 46 04.17 -21 25 36.4   W84 – Cerro Tololo-DECam MPS 790993
2015 05 21.29136 15 46 04.00 -21 25 35.8   W84 – Cerro Tololo-DECam MPS 790993
2015 05 22.32070 15 45 11.18 -21 22 19.7 20.7 V W84 – Cerro Tololo-DECam MPS 790993
2015 05 22.32394 15 45 11.01 -21 22 19.0   W84 – Cerro Tololo-DECam MPS 790993
2015 05 22.32710 15 45 10.84 -21 22 18.4   W84 – Cerro Tololo-DECam MPS 790993
2015 05 22.33028 15 45 10.67 -21 22 17.8   W84 – Cerro Tololo-DECam MPS 790993
2015 05 22.33350 15 45 10.51 -21 22 17.2   W84 – Cerro Tololo-DECam MPS 790993
2015 05 23.23066 15 44 24.77 -21 19 25.6 20.6 V W84 – Cerro Tololo-DECam MPS 790993
2015 05 23.23388 15 44 24.60 -21 19 24.9   W84 – Cerro Tololo-DECam MPS 790993
2015 05 23.23712 15 44 24.43 -21 19 24.3   W84 – Cerro Tololo-DECam MPS 790993
2015 05 23.24036 15 44 24.26 -21 19 23.7   W84 – Cerro Tololo-DECam MPS 790993
2015 05 23.24358 15 44 24.09 -21 19 23.0   W84 – Cerro Tololo-DECam MPS 790993
2015 05 24.22972 15 43 33.87 -21 16 12.8 20.8 V W84 – Cerro Tololo-DECam MPS 790993
2015 05 24.23295 15 43 33.70 -21 16 12.2   W84 – Cerro Tololo-DECam MPS 790993
2015 05 24.23619 15 43 33.53 -21 16 11.5   W84 – Cerro Tololo-DECam MPS 790993
2015 05 24.23941 15 43 33.36 -21 16 10.9   W84 – Cerro Tololo-DECam MPS 790993
2015 05 24.24267 15 43 33.18 -21 16 10.2   W84 – Cerro Tololo-DECam MPS 790993
2015 05 24.42273 15 43 24.157 -21 15 39.39 20.6 w F51 – Pan-STARRS 1, Haleakala MPS 608885
2015 05 24.43423 15 43 23.550 -21 15 37.19 20.6 w F51 – Pan-STARRS 1, Haleakala MPS 608885
2015 05 24.44573 15 43 22.952 -21 15 34.61 20.6 w F51 – Pan-STARRS 1, Haleakala MPS 608885
2015 05 24.45720 15 43 22.337 -21 15 32.80 20.6 w F51 – Pan-STARRS 1, Haleakala MPS 608885
2015 05 25.37766 15 42 35.866 -21 12 33.69 20.6 i F51 – Pan-STARRS 1, Haleakala MPS 608885
2015 05 25.38163 15 42 35.657 -21 12 33.17 20.3 i F51 – Pan-STARRS 1, Haleakala MPS 608885
2015 05 25.38897 15 42 35.290 -21 12 31.57 20.3 i F51 – Pan-STARRS 1, Haleakala MPS 608885
2015 05 25.39292 15 42 35.072 -21 12 31.03 20.3 i F51 – Pan-STARRS 1, Haleakala MPS 608885
2015 05 25.40030 15 42 34.673 -21 12 29.45 20.3 i F51 – Pan-STARRS 1, Haleakala MPS 608885
2015 05 25.40427 15 42 34.470 -21 12 28.77 20.5 i F51 – Pan-STARRS 1, Haleakala MPS 608885
2015 05 25.41161 15 42 34.104 -21 12 27.20 20.3 i F51 – Pan-STARRS 1, Haleakala MPS 608885
2015 05 25.41557 15 42 33.886 -21 12 26.47 20.2 i F51 – Pan-STARRS 1, Haleakala MPS 608885
2015 06 11.31880 15 29 46.620 -20 18 40.84 21.0 w F51 – Pan-STARRS 1, Haleakala MPS 609985
2015 06 11.33001 15 29 46.171 -20 18 38.98 21.0 w F51 – Pan-STARRS 1, Haleakala MPS 609985
2015 06 11.34122 15 29 45.720 -20 18 37.08 21.0 w F51 – Pan-STARRS 1, Haleakala MPS 609985
2015 06 11.35242 15 29 45.278 -20 18 35.10 21.1 w F51 – Pan-STARRS 1, Haleakala MPS 609985
2015 06 18.23520 15 25 50.21 -19 59 36.6 21.3 V G96 – Mt. Lemmon Survey MPS 611612
2015 06 18.24583 15 25 49.86 -19 59 34.9 21.2 V G96 – Mt. Lemmon Survey MPS 611612
